Location: Knowlton
(51.2333°N, 1.2667°E)
Time: 05:02:13
(UTC+00:00)

Cosmos 1500 Rocket - Pass Details

Date: 18 April 2021
Orbit: 604 x 630 km, 82.5° (Epoch: 06 May)

Event Time Altitude Azimuth Distance (km) Brightness Sun altitude
Rises 22:34:22 0° 347° (NNW) 2,937 8.4 -25.2°
Reaches altitude 10° 22:36:38 10° 345° (NNW) 2,024 7.2 -25.4°
Enters shadow 22:40:50 64° 284° (WNW) 700 3.8 -25.6°
